Regional Weather Roundup
Issued by NWS

Home | Current Version | Previous Version | Graphics & Text | Print | Product List | Glossary On
Versions: 1 2 3 4 5 6 7 8 9 10 11 12 13 14 15 16 17 18 19 20 21 22 23 24 25 26 27 28 29 30 31 32 33 34 35 36 37 38 39 40 41 42 43 44 45 46 47 48 49 50
294
ASUS43 KLOT 131203
RWRIL

ILLINOIS REGIONAL WEATHER ROUNDUP
NATIONAL WEATHER SERVICE CHICAGO/ROMEOVILLE IL
600 AM CST SAT FEB 13 2016

NOTE: "FAIR" INDICATES FEW OR NO CLOUDS BELOW 12,000 FEET WITH NO
SIGNIFICANT WEATHER AND/OR OBSTRUCTIONS TO VISIBILITY.

* THESE STATIONS ARE NOT UNDER NWS QUALITY CONTROL. THEY ALSO MAY NOT
  REPORT WEATHER SUCH AS PRECIPITATION OR FOG.

ILZ001-002-007-009-015-016-024-131300-
NORTHWEST ILLINOIS

CITY           SKY/WX    TMP DP  RH WIND       PRES   REMARKS
MOLINE         CLOUDY     4  -6  63 NW6       30.63R WCI  -7
6HR MIN TEMP:   4; 6HR MAX TEMP:   9;

STERLING*      CLEAR      3  -9  55 NW5       30.57S WCI  -6
$$

ILZ003-004-008-010-011-017-018-131300-
NORTH CENTRAL ILLINOIS

CITY           SKY/WX    TMP DP  RH WIND       PRES   REMARKS
ROCKFORD       PTCLDY     2 -11  54 N10       30.59S WCI -14
6HR MIN TEMP:   2; 6HR MAX TEMP:   7;

FREEPORT*      CLEAR      0  -9  65 NW6       30.59S WCI -12
DE KALB*       CLEAR      2 -10  56 NW6       30.55S WCI  -9
$$

ILZ005-006-012>014-019>023-131300-
NORTHEAST ILLINOIS

CITY           SKY/WX    TMP DP  RH WIND       PRES   REMARKS
CHICAGO-OHARE  PTCLDY     3 -10  54 NW13      30.55R WCI -14
6HR MIN TEMP:   3; 6HR MAX TEMP:   7;

CHICAGO-MIDWAY PTCLDY     5 -11  47 NW10      30.56R WCI -10
6HR MIN TEMP:   5; 6HR MAX TEMP:   9;

AURORA         CLOUDY     3  -7  63 NW6       30.57S WCI  -8
6HR MIN TEMP:   3; 6HR MAX TEMP:   8;

WAUKEGAN       CLEAR      1 -11  57 NW8       30.53R WCI -13
6HR MIN TEMP:   1; 6HR MAX TEMP:   4;

DUPAGE AIRPORT CLEAR      2 -11  54 NW12      30.55R WCI -15
6HR MIN TEMP:   2; 6HR MAX TEMP:   6;

WHEELING       CLEAR      2 -11  54 NW10      30.57R WCI -14
6HR MIN TEMP:   2; 6HR MAX TEMP:   6;

NORTHERLY ISL    N/A      6  -8  52 W6          N/A  WCI  -4
$$

LMZ740>746-131300-
SOUTHERN LAKE MICHIGAN

STATION/POSITION SKY/WX   TEMP    WIND        PRES    VSBY  WAVE
                          AIR SEA DIR/SP/G                  HT/PER
                          (F)     (DEG/KT/KT) (MB)    (MI)  (FT/S)
HARRISON CRIB               6     310/ 17/ 20   N/A
BURNHAM HARBOR              6     290/  8/ 15   N/A
CALUMET HARBOR              5     300/ 11/ 14 1033.5R
BURNS HARBOR                9     300/ 18/ 22 1033.5R
MICHIGAN CITY              12     310/ 24/ 26   N/A
$$

ILZ025>027-034>036-040-047-049-050-058-095>099-131300-
WEST-CENTRAL ILLINOIS

CITY           SKY/WX    TMP DP  RH WIND       PRES   REMARKS
QUINCY         PTCLDY     3  -4  72 NW7       30.63R WCI  -9
MACOMB*        CLOUDY     5  -2  72 N7        30.65S WCI  -7
$$

ILZ028>032-037-038-041>044-048-051>054-059>061-131300-
CENTRAL ILLINOIS

CITY           SKY/WX    TMP DP  RH WIND       PRES   REMARKS
BLOOMINGTON    CLOUDY     4  -5  66 N5        30.58R WCI  -5
DECATUR        CLOUDY     7  -5  57 N10       30.60R WCI  -8
PEORIA         CLOUDY     5  -6  60 N3        30.62S
6HR MIN TEMP:   5; 6HR MAX TEMP:  10;

LINCOLN*       CLOUDY     7  -3  64 CALM      30.61S
SPRINGFIELD    CLOUDY     8  -2  63 N7        30.62S WCI  -3
6HR MIN TEMP:   8; 6HR MAX TEMP:  14;

TAYLORVILLE    NOT AVBL
$$

ILZ033-039-045-046-055>057-062-063-131300-
EAST-CENTRAL ILLINOIS

CITY           SKY/WX    TMP DP  RH WIND       PRES   REMARKS
CHAMPAIGN      CLEAR      5  -5  63 N6        30.58R WCI  -6
MATTOON        CLEAR      7  -3  64 N10       30.57R WCI  -8
$$

ILZ079-100>102-131300-
SOUTHWEST ILLINOIS

CITY           SKY/WX    TMP DP  RH WIND       PRES   REMARKS
ALTON          CLOUDY    10   1  67 N6        30.64S WCI   0
BELLEVILLE     CLEAR     11   1  63 N8        30.62S WCI   0
CAHOKIA*       CLOUDY    13   1  59 N10       30.65R WCI   0
SPARTA*        CLEAR     13   4  68 N8        30.64R WCI   1
$$

ILZ064>066-069>071-074>076-080>082-084>086-088>090-092>094-131300-
SOUTH-CENTRAL ILLINOIS

CITY           SKY/WX    TMP DP  RH WIND       PRES   REMARKS
CARBONDALE     PTCLDY    14   4  64 N12       30.62R WCI   0
6HR MIN TEMP:  14; 6HR MAX TEMP:  22;

MARION         CLEAR     16   7  67 N7        30.61R WCI   6
MT. VERNON     CLEAR     12   0  57 N6        30.61R WCI   3
CENTRALIA*     CLEAR     13   5  69 N9        30.61R WCI   1
SALEM*         CLEAR     13   3  64 N9        30.61R WCI   0
$$

ILZ067-068-072-073-078-083-087-091-131300-
SOUTHEAST ILLINOIS

CITY           SKY/WX    TMP DP  RH WIND       PRES   REMARKS
LAWRENCEVILLE  CLEAR     11   1  64 N10       30.60R WCI  -3
HARRISBURG*    CLEAR     14   5  67 N7        30.62R WCI   4
ROBINSON*      CLEAR     10   0  62 N8        30.60R WCI  -1
$$

ABBREVIATIONS USED IN REMARKS
   TC - TEMPERATURE IN CELSIUS
  WCI - WIND CHILL INDEX
   HX - HEAT INDEX
  VSB - VISIBILITY
$$





USA.gov is the U.S. government's official web portal to all federal, state and local government web resources and services.